User: anonymous   Login
Location: Bushey
(51.6333°N, 0.3667°W)
Time: 00:45:31
(UTC+00:00)
Language:

ARGOS - Orbit

View from above orbital plane
View from above orbital plane
View from above satellite
View from above satellite

Ground track
Ground track

The orbit data is extracted from the following two-line orbital elements,

1 25634U 99008A   21136.68516057 -.00000006  00000-0  16654-4 0  9990
2 25634  98.4213 165.9308 0010855  37.4056 322.7874 14.19394601150754
Epoch (UTC): 16 May 2021 16:26:37
Eccentricity: 0.0010855
inclination: 98.4213°
perigee height: 819 km
apogee height: 835 km
right ascension of ascending node: 165.9308°
argument of perigee: 37.4056°
revolutions per day: 14.19394601
mean anomaly at epoch: 322.7874°
orbit number at epoch: 15075

The dashed part of the orbit path shows where the satellite is in the earth's shadow,  

DLR